Location: Champs
(48.8539°N, 2.6040°E)
Time: 17:04:20
(UTC+00:00)

Cosmos 1538 Rocket - Pass Details

Date: 29 May 2022
Orbit: 752 x 791 km, 74.0° (Epoch: 02 July)

Event Time Altitude Azimuth Distance (km) Brightness Sun altitude
Rises 22:50:22 0° 319° (NW) 3,242 8.4 -18.3°
Reaches altitude 10° 22:54:37 10° 286° (WNW) 2,298 6.8 -18.4°
Maximum altitude 22:56:05 11° 269° (W) 2,212 6.5 -18.5°
Drops below altitude 10° 22:57:33 10° 252° (WSW) 2,288 6.4 -18.6°
Enters shadow 22:59:35 - 233° (SW) 2,629 6.5 -18.6°
